Terminal Aerodrome Forecast
Issued by NWS Billings, MT

Home | Current Version | Previous Version | Graphics & Text | Print | Product List | Glossary On
Versions: 1 2 3 4 5 6 7 8 9 10 11 12 13 14 15 16 17 18 19 20 21 22 23 24 25 26 27 28 29 30 31 32 33 34 35
000
FTUS45 KBYZ 300313 AAA
TAFMLS
TAF AMD
KMLS 300313Z 3003/3024 12007KT P6SM SCT015 BKN100
     FM300700 VRB05KT P6SM SCT007 OVC009
     FM301300 30008KT P6SM VCSH OVC015
     FM302100 33014G21KT P6SM BKN040=

USA.gov is the U.S. government's official web portal to all federal, state and local government web resources and services.